EW2719 Weather Reports


time (UTC)temp
C
wind
direction
speed
KPH
gust
KPH
rain 1hr
cm
rain 24hr
cm
rain mn
cm
humidity
%
barometer
mb
20260502163019 22 245 16.1 30.6 0.00 0.00 0.00 35 1011.2
20260502161515 22 228 17.7 30.6 0.00 0.00 0.00 33 1011.3
20260502151512 24 243 14.5 25.7 0.00 0.00 0.00 37 1011.7
20260502130105 23 161 11.3 24.1 0.00 0.00 0.00 52 1013.0
20260502123050 23 225 16.1 27.4 0.00 0.00 0.00 42 1013.3
20260502121558 23 236 12.9 25.7 0.00 0.00 0.00 46 1013.5
20260502120105 23 219 16.1 30.6 0.00 0.00 0.00 44 1013.7
20260502114548 22 232 12.9 27.4 0.00 0.00 0.00 44 1013.9
20260502113054 22 246 16.1 25.7 0.00 0.00 0.00 45 1014.2
20260502111544 22 202 16.1 25.7 0.00 0.00 0.00 49 1014.3
20260502110037 22 239 14.5 25.7 0.00 0.00 0.00 54 1014.5
20260502104534 21 196 11.3 22.5 0.00 0.00 0.00 58 1014.6
20260502103055 21 167 12.9 20.9 0.00 0.00 0.00 61 1014.7
20260502101538 20 166 12.9 24.1 0.00 0.00 0.00 61 1014.8
20260502091514 19 163 12.9 17.7 0.00 0.00 0.00 69 1015.2
20260502070035 15 189 12.9 17.7 0.00 0.00 0.00 77 1016.1
20260502064536 14 180 12.9 19.3 0.00 0.00 0.00 78 1016.1
20260502063026 14 190 12.9 22.5 0.00 0.00 0.00 78 1016.2
20260502061523 13 190 16.1 22.5 0.00 0.00 0.00 78 1016.2
20260502060018 13 203 16.1 24.1 0.00 0.00 0.00 80 1016.2
20260502054514 12 194 14.5 25.7 0.00 0.00 0.00 83 1016.3
20260502053009 11 192 14.5 24.1 0.00 0.00 0.00 85 1016.3
20260502051506 11 194 14.5 19.3 0.00 0.00 0.00 86 1016.5
20260502050100 11 200 11.3 17.7 0.00 0.00 0.00 88 1016.6
20260502044556 10 194 9.7 16.1 0.00 0.00 0.00 88 1016.7
20260502043100 10 195 11.3 16.1 0.00 0.00 0.00 88 1016.8
20260502041549 10 198 11.3 16.1 0.00 0.00 0.00 88 1016.8
20260502040051 10 192 9.7 16.1 0.00 0.00 0.00 88 1017.1
20260502034544 10 205 9.7 14.5 0.00 0.00 0.00 87 1017.3
20260502033043 10 184 8.0 16.1 0.00 0.00 0.00 86 1017.5
20260502031538 10 182 8.0 14.5 0.00 0.00 0.00 86 1017.9
20260502030043 10 192 9.7 16.1 0.00 0.00 0.00 85 1018.2
20260502024534 10 196 9.7 14.5 0.00 0.00 0.00 84 1018.4
20260502023032 10 193 8.0 14.5 0.00 0.00 0.00 84 1018.5
20260502021531 10 197 9.7 14.5 0.00 0.00 0.00 84 1018.7
20260502020027 10 194 8.0 12.9 0.00 0.00 0.00 84 1018.9
20260502014524 10 184 6.4 12.9 0.00 0.00 0.00 83 1019.0
20260502013022 10 198 8.0 14.5 0.00 0.00 0.00 83 1019.3
20260502011520 10 186 8.0 14.5 0.00 0.00 0.00 83 1019.5
20260502010021 10 196 9.7 14.5 0.00 0.00 0.00 83 1019.7
20260502004516 11 202 9.7 16.1 0.00 0.00 0.00 83 1019.9
20260502003014 11 194 9.7 12.9 0.00 0.00 0.00 82 1020.0
20260502001513 11 194 11.3 16.1 0.00 0.00 0.00 82 1020.4
20260502000010 11 192 11.3 14.5 0.00 0.00 0.00 82 1020.5
20260501234508 11 193 9.7 14.5 0.00 0.00 0.00 81 1020.6
20260501233006 11 184 8.0 11.3 0.00 0.00 0.00 81 1020.8
20260501231503 11 192 8.0 11.3 0.00 0.00 0.00 81 1021.1
20260501230002 11 188 6.4 12.9 0.00 0.00 0.00 81 1021.1
20260501224600 11 192 8.0 11.3 0.00 0.00 0.00 81 1021.4
20260501223108 11 197 8.0 11.3 0.00 0.00 0.00 82 1021.7
20260501221554 11 190 6.4 11.3 0.00 0.00 0.00 83 1021.8
20260501220050 11 198 9.7 12.9 0.00 0.00 0.00 84 1021.9
20260501214549 11 200 9.7 14.5 0.00 0.00 0.00 83 1022.0
20260501213055 11 193 9.7 11.3 0.00 0.00 0.00 79 1022.1
20260501211555 12 194 8.0 12.9 0.00 0.00 0.00 76 1022.0
20260501210045 12 197 8.0 12.9 0.00 0.00 0.00 74 1022.1
20260501204556 12 192 6.4 12.9 0.00 0.00 0.00 72 1022.1
20260501203055 13 196 9.7 14.5 0.00 0.00 0.00 71 1022.3
20260501201543 13 188 8.0 14.5 0.00 0.00 0.00 70 1022.4
20260501200041 13 194 9.7 14.5 0.00 0.00 0.00 71 1022.4
20260501194540 13 198 11.3 16.1 0.00 0.00 0.00 71 1022.5
20260501193045 13 205 12.9 16.1 0.00 0.00 0.00 71 1022.7
20260501191537 13 194 12.9 16.1 0.00 0.00 0.00 70 1022.8
20260501190036 14 198 11.3 19.3 0.00 0.00 0.00 68 1022.8
20260501184538 15 195 12.9 20.9 0.00 0.00 0.00 66 1022.7
20260501183035 15 188 11.3 20.9 0.00 0.00 0.00 65 1022.9
20260501181534 15 180 12.9 19.3 0.00 0.00 0.00 64 1022.8
20260501180035 16 193 12.9 20.9 0.00 0.00 0.00 61 1022.8
20260501174531 16 201 12.9 19.3 0.00 0.00 0.00 59 1022.8
20260501173034 17 182 16.1 25.7 0.00 0.00 0.00 56 1022.9
20260501171524 18 170 14.5 27.4 0.00 0.00 0.00 55 1023.2
20260501170025 18 195 17.7 30.6 0.00 0.00 0.00 52 1023.4
20260501164522 19 200 16.1 29.0 0.00 0.00 0.00 50 1023.4